Coconut Island Observation History
Time Wind Speed Temp Pressure Rel. Hum Rain
03/01:30pm - 0.0 kts 31.7°c 1008.7 hPa n/a 0.0mm
03/01:00pm - 0.0 kts 31.8°c 1009.1 hPa n/a 0.0mm
03/12:30pm - 0.0 kts 31.8°c 1009.7 hPa n/a 0.0mm
03/12:00pm - 0.0 kts 31.7°c 1010.2 hPa n/a 0.0mm
03/11:30am - 0.0 kts 32.3°c 1010.8 hPa n/a 0.0mm
03/11:00am - 0.0 kts 31.9°c 1011.2 hPa n/a 0.0mm
03/10:30am - 0.0 kts 31.7°c 1011.6 hPa n/a 0.0mm
03/10:00am - 0.0 kts 31.0°c 1011.8 hPa n/a 0.0mm
03/09:30am - 0.0 kts 30.2°c 1011.6 hPa n/a 0.0mm
03/09:00am - 0.0 kts 30.2°c 1011.2 hPa n/a 0.2mm
03/08:30am - 0.0 kts 29.5°c 1011.1 hPa n/a 0.2mm
03/08:00am - 0.0 kts 28.0°c 1010.7 hPa n/a 0.2mm
03/07:30am - 0.0 kts 26.1°c 1010.2 hPa n/a 0.2mm
03/07:00am - 0.0 kts 25.4°c 1009.8 hPa n/a 0.2mm
03/06:30am - 0.0 kts 25.1°c 1009.5 hPa n/a 0.2mm
03/06:00am - 0.0 kts 25.4°c 1009.2 hPa n/a 0.2mm
03/05:30am - 0.0 kts 25.4°c 1008.8 hPa n/a 0.2mm
03/05:00am - 0.0 kts 25.5°c 1008.6 hPa n/a 0.2mm
03/04:30am - 0.0 kts 25.4°c 1008.5 hPa n/a 0.2mm
03/04:00am - 0.0 kts 25.4°c 1008.4 hPa n/a 0.2mm
03/03:30am - 0.0 kts 25.4°c 1008.5 hPa n/a 0.2mm
03/03:00am - 0.0 kts 25.5°c 1008.4 hPa n/a 0.2mm
03/02:30am - 0.0 kts 25.9°c 1008.7 hPa n/a 0.2mm
03/02:00am - 0.0 kts 26.1°c 1008.8 hPa n/a 0.2mm
03/01:30am - 0.0 kts 26.1°c 1009.0 hPa n/a 0.2mm
03/01:00am - 0.0 kts 26.5°c 1009.3 hPa n/a 0.2mm
03/12:30am - 0.0 kts 26.6°c 1009.7 hPa n/a 0.2mm
03/12:00am - 0.0 kts 26.7°c 1009.9 hPa n/a 0.2mm
Time Wind Speed Temp Pressure Rel. Hum Rain
02/11:30pm - 0.0 kts 26.7°c 1010.0 hPa n/a 0.2mm
02/11:00pm - 0.0 kts 26.8°c 1010.0 hPa n/a 0.2mm
02/10:30pm - 0.0 kts 26.9°c 1009.9 hPa n/a 0.2mm
02/10:00pm - 0.0 kts 27.1°c 1009.8 hPa n/a 0.2mm
02/09:30pm - 0.0 kts 27.1°c 1009.7 hPa n/a 0.2mm
02/09:00pm - 0.0 kts 27.3°c 1009.5 hPa n/a 0.2mm
02/08:30pm - 0.0 kts 27.5°c 1009.5 hPa n/a 0.2mm
02/08:00pm - 0.0 kts 27.6°c 1009.2 hPa n/a 0.2mm
02/07:30pm - 0.0 kts 27.7°c 1009.0 hPa n/a 0.2mm
02/07:00pm - 0.0 kts 27.9°c 1008.9 hPa n/a 0.2mm
02/06:30pm - 0.0 kts 27.9°c 1008.8 hPa n/a 0.2mm
02/06:00pm - 0.0 kts 28.4°c 1008.5 hPa n/a 0.2mm
02/05:30pm - 0.0 kts 29.0°c 1008.1 hPa n/a 0.2mm
02/05:00pm - 0.0 kts 29.8°c 1007.6 hPa n/a 0.2mm
02/04:30pm - 0.0 kts 29.6°c 1007.4 hPa n/a 0.2mm
02/04:00pm - 0.0 kts 30.3°c 1007.2 hPa n/a 0.2mm
02/03:30pm - 0.0 kts 30.5°c 1007.5 hPa n/a 0.2mm
02/03:00pm - 0.0 kts 31.0°c 1007.7 hPa n/a 0.2mm
02/02:30pm - 0.0 kts 31.0°c 1007.9 hPa n/a 0.2mm
02/02:00pm - 0.0 kts 30.4°c 1008.2 hPa n/a 0.2mm
02/01:30pm - 0.0 kts 30.6°c 1008.5 hPa n/a 0.2mm
02/01:00pm - 0.0 kts 30.6°c 1008.8 hPa n/a 0.2mm
02/12:30pm - 0.0 kts 31.6°c 1009.4 hPa n/a 0.2mm
02/12:00pm - 0.0 kts 29.9°c 1009.8 hPa n/a 0.2mm
02/11:30am - 0.0 kts 31.4°c 1010.2 hPa n/a 0.2mm
02/11:00am - 0.0 kts 30.3°c 1010.7 hPa n/a 0.2mm
02/10:30am - 0.0 kts 29.6°c 1010.8 hPa n/a 0.0mm
02/10:00am - 0.0 kts 27.4°c 1010.9 hPa n/a 0.0mm
02/09:30am - 0.0 kts 27.9°c 1010.9 hPa n/a 0.0mm
02/09:00am - 0.0 kts 27.9°c 1010.7 hPa n/a 12.0mm
02/08:30am - 0.0 kts 27.6°c 1010.2 hPa n/a 12.0mm
02/08:00am - 0.0 kts 28.0°c 1009.5 hPa n/a 11.2mm
02/07:30am - 0.0 kts 27.7°c 1009.0 hPa n/a 11.2mm
02/07:00am - 0.0 kts 27.3°c 1008.6 hPa n/a 11.2mm
02/06:30am - 0.0 kts 27.1°c 1008.3 hPa n/a 11.2mm
02/06:00am - 0.0 kts 27.0°c 1007.6 hPa n/a 11.2mm
02/05:30am - 0.0 kts 26.9°c 1007.2 hPa n/a 11.2mm
02/05:00am - 0.0 kts 27.0°c 1006.8 hPa n/a 11.2mm
02/04:30am - 0.0 kts 26.8°c 1006.8 hPa n/a 11.2mm
02/04:00am - 0.0 kts 26.6°c 1006.7 hPa n/a 11.2mm
02/03:30am - 0.0 kts 26.5°c 1006.8 hPa n/a 11.2mm
02/03:00am - 0.0 kts 26.8°c 1007.4 hPa n/a 11.2mm
02/02:30am - 0.0 kts 27.3°c 1007.3 hPa n/a 10.2mm
02/02:00am - 0.0 kts 27.4°c 1007.3 hPa n/a 10.2mm
02/01:30am - 0.0 kts 27.3°c 1007.6 hPa n/a 10.2mm
02/01:00am - 0.0 kts 27.3°c 1007.8 hPa n/a 10.2mm
02/12:30am - 0.0 kts 27.2°c 1007.9 hPa n/a 10.2mm
02/12:00am - 0.0 kts 27.2°c 1008.0 hPa n/a 10.2mm
Time Wind Speed Temp Pressure Rel. Hum Rain
01/11:30pm - 0.0 kts 27.6°c 1008.1 hPa n/a 10.2mm
01/11:00pm - 0.0 kts 27.4°c 1008.3 hPa n/a 10.2mm
01/10:30pm - 0.0 kts 27.3°c 1008.4 hPa n/a 10.2mm
01/10:00pm - 0.0 kts 27.4°c 1008.0 hPa n/a 10.2mm
01/09:30pm - 0.0 kts 27.5°c 1007.6 hPa n/a 10.2mm
01/09:00pm - 0.0 kts 27.4°c 1007.6 hPa n/a 10.2mm
01/08:30pm - 0.0 kts 27.3°c 1007.4 hPa n/a 10.2mm
01/08:00pm - 0.0 kts 27.5°c 1007.2 hPa n/a 10.2mm
01/07:30pm - 0.0 kts 27.5°c 1007.0 hPa n/a 10.2mm
01/07:00pm - 0.0 kts 27.5°c 1007.0 hPa n/a 10.2mm
01/06:30pm - 0.0 kts 27.3°c 1006.8 hPa n/a 10.2mm
01/06:00pm - 0.0 kts 27.4°c 1006.6 hPa n/a 10.2mm
01/05:30pm - 0.0 kts 27.4°c 1006.5 hPa n/a 10.2mm
01/05:00pm - 0.0 kts 27.4°c 1006.3 hPa n/a 10.2mm
01/04:30pm - 0.0 kts 27.3°c 1006.2 hPa n/a 10.2mm
01/04:00pm - 0.0 kts 27.9°c 1006.0 hPa n/a 9.8mm
01/03:30pm - 0.0 kts 28.0°c 1005.9 hPa n/a 9.6mm
01/03:00pm - 0.0 kts 28.1°c 1006.0 hPa n/a 9.6mm
01/02:30pm - 0.0 kts 28.1°c 1006.0 hPa n/a 9.2mm
01/02:00pm - 0.0 kts 28.3°c 1006.3 hPa n/a 9.0mm
01/01:30pm - 0.0 kts 27.7°c 1006.2 hPa n/a 9.0mm
01/01:00pm - 0.0 kts 27.4°c 1006.7 hPa n/a 9.0mm
01/12:30pm - 0.0 kts 27.2°c 1007.3 hPa n/a 8.2mm
01/12:00pm - 0.0 kts 27.3°c 1007.5 hPa n/a 8.2mm
01/11:30am - 0.0 kts 26.5°c 1008.1 hPa n/a 7.8mm
01/11:00am - 0.0 kts 26.9°c 1008.6 hPa n/a 6.2mm
01/10:30am - 0.0 kts 26.9°c 1008.8 hPa n/a 6.0mm
01/10:00am - 0.0 kts 26.4°c 1008.9 hPa n/a 6.0mm
01/09:30am - 0.0 kts 26.8°c 1008.6 hPa n/a 5.8mm
01/09:00am - 0.0 kts 26.3°c 1008.7 hPa n/a 40.4mm
01/08:30am - 0.0 kts 25.7°c 1008.8 hPa n/a 38.0mm
01/08:00am - 0.0 kts 27.2°c 1008.0 hPa n/a 27.8mm
01/07:30am - 0.0 kts 27.0°c 1007.4 hPa n/a 27.6mm
01/07:00am - 0.0 kts 26.6°c 1007.2 hPa n/a 25.6mm
01/06:30am - 0.0 kts 27.1°c 1006.5 hPa n/a 24.2mm
01/06:00am - 0.0 kts 27.0°c 1006.3 hPa n/a 24.2mm
01/05:30am - 0.0 kts 26.8°c 1006.0 hPa n/a 24.2mm
01/05:00am - 0.0 kts 26.9°c 1005.5 hPa n/a 24.2mm
01/04:30am - 0.0 kts 26.7°c 1005.4 hPa n/a 24.2mm
01/04:00am - 0.0 kts 26.8°c 1005.4 hPa n/a 23.6mm
01/03:30am - 0.0 kts 26.8°c 1005.4 hPa n/a 23.6mm
01/03:00am - 0.0 kts 27.1°c 1005.5 hPa n/a 22.8mm
01/02:30am - 0.0 kts 27.3°c 1005.5 hPa n/a 21.4mm
01/02:00am - 0.0 kts 27.3°c 1005.9 hPa n/a 21.2mm
01/01:30am - 0.0 kts 27.1°c 1006.5 hPa n/a 20.8mm
01/01:00am - 0.0 kts 27.3°c 1006.7 hPa n/a 20.2mm
01/12:30am - 0.0 kts 27.0°c 1007.1 hPa n/a 20.2mm
01/12:00am - 0.0 kts 26.6°c 1007.3 hPa n/a 20.2mm